Regional Weather Roundup
Issued by NWS

Home | Current Version | Previous Version | Text Only | Print | Product List | Glossary On
Versions: 1 2 3 4 5 6 7 8 9 10 11 12 13 14 15 16 17 18 19 20 21 22 23 24 25 26 27 28 29 30 31 32 33 34 35 36 37 38 39 40 41 42 43 44 45 46 47 48 49 50
000
ASUS46 KSTO 231715
RWRCA

NORTHERN AND CENTRAL CA REGIONAL WEATHER ROUNDUP
NATIONAL WEATHER SERVICE SACRAMENTO CA
1000 AM PDT WED AUG 23 2017

NOTE: FAIR INDICATES FEW OR NO CLOUDS BELOW 12,000 FEET WITH NO
SIGNIFICANT WEATHER AND/OR OBSTRUCTIONS TO VISIBILITY.

CAZ001-003-231800-
NORTHWEST AREA

CITY           SKY/WX    TMP DP  RH WIND       PRES   REMARKS
CRESCENT CITY  FOG       53  53 100 S5        30.04S VSB 3/4
UKIAH          SUNNY     73  52  47 CALM      29.97S
$$

CAZ006-505>513-231800-
BAY AREA

CITY           SKY/WX    TMP DP  RH WIND       PRES   REMARKS
SANTA ROSA     MOSUNNY   61  54  77 S3        29.98S
SAN RAFAEL     N/A       58  MM  MM MISG
NAPA           PTSUNNY   62  54  74 VRB5      29.99S
CONCORD        SUNNY     69  57  65 S6        29.97S
OAKLAND CITY   N/A      MM  MM  MM MISG
OAKLAND        CLOUDY    61  58  90 W7        30.01R FOG
SAN FRAN CITY  N/A       58  MM  96 MISG
SAN FRAN ARPT  CLOUDY    63  56  78 NW7       29.99S
LIVERMORE      SUNNY     67  57  70 W7        29.98S HAZE
HAYWARD        CLOUDY    63  54  72 NW5       30.00S HAZE
REDWOOD CITY   N/A       67  MM  75 MISG
MOFFETT ARPT   CLOUDY    65  58  78 N6        30.01R
SAN JOSE ARPT  PTSUNNY   66  58  75 VRB3      30.00S HAZE
$$
CAZ034-037-514>518-231800-
CENTRAL COAST

CITY           SKY/WX    TMP DP  RH WIND       PRES   REMARKS
WATSONVILLE    CLOUDY    61  58  90 CALM      30.02R
SALINAS        CLOUDY    60  57  89 CALM      30.01R
MONTEREY       CLOUDY    59  57  93 W5        30.02R FOG
SAN LUIS OBISP CLOUDY    62  57  83 NW8       30.01S
SANTA MARIA    CLOUDY    60  58  92 CALM      30.01S FOG
$$
CAZ015-016-231800-
NORTHERN SACRAMENTO VALLEY

CITY           SKY/WX    TMP DP  RH WIND       PRES   REMARKS
REDDING        SUNNY     87  57  35 CALM      29.92F
RED BLUFF      SUNNY     84  58  40 CALM      29.93F
OROVILLE       SUNNY     82  60  47 W3        29.94S
$$
CAZ016>018-231800-
SOUTHERN SACRAMENTO VALLEY

CITY           SKY/WX    TMP DP  RH WIND       PRES   REMARKS
AUBURN         SUNNY     84  84 100 W5        29.98S HX 104
BEALE AFB      SUNNY     79  59  51 CALM      29.90F
LINCOLN        FAIR      77  54  44 W5        29.92S
MARYSVILLE     SUNNY     79  58  48 VRB3      29.92F
SAC INTL ARPT  SUNNY     73  59  61 W3        29.92S
MATHER AIRPORT SUNNY     75  55  50 S6        29.93R
DOWNTOWN SAC   N/A       75  MM  MM MISG
SAC EXEC ARPT  SUNNY     72  59  63 SW6       29.93S
VACAVILLE      SUNNY     78  58  49 SW6       29.94S
TRAVIS AFB     SUNNY     68  56  64 SW21      29.92S
$$
CAZ019>021-231800-
SAN JOAQUIN VALLEY

CITY           SKY/WX    TMP DP  RH WIND       PRES   REMARKS
STOCKTON       SUNNY     77  59  53 NW10      29.93S
MODESTO        SUNNY     77  57  50 N9        29.92R
MERCED         SUNNY     76  54  46 NW5       29.92S
LEMOORE        MOSUNNY   83  55  38 NW8       29.93S
FRESNO         MOSUNNY   80  62  54 SE6       29.93S HAZE
HANFORD        SUNNY     80  57  45 VRB3      29.93S
PORTERVILLE      N/A     82  60  47 SW8       29.94S
BAKERSFIELD    SUNNY     83  58  42 S3        29.93F
$$
CAZ011-012-071-231800-
NORTHERN MOUNTAINS

CITY           SKY/WX    TMP DP  RH WIND       PRES   REMARKS
YREKA          MOSUNNY   74  55  51 CALM      30.08S HAZE
MOUNT SHASTA   PTSUNNY   73  57  57 CALM      30.11S
ALTURAS        CLOUDY    73  55  53 CALM      30.16F
$$
CAZ011-012-071-231800-
SIERRA NEVADA MTNS

CITY           SKY/WX    TMP DP  RH WIND       PRES   REMARKS
BLUE CANYON    MOSUNNY   76  46  34 CALM      30.23R
TRUCKEE        SUNNY     55  50  82 CALM      30.28F
TAHOE VLY ARPT SUNNY     65  50  58 VRB5      30.29S
MAMMOTH LAKES  FAIR      68  42  39 SE3       30.35S
$$




USA.gov is the U.S. government's official web portal to all federal, state and local government web resources and services.